Year,Month,Day,Hour,Minute,Value (Times are PST for temperature in C)
2008,05,18,00,00,16.60
2008,05,18,00,01,16.30
2008,05,18,00,02,16.20
2008,05,18,00,03,15.90
2008,05,18,00,04,15.80
2008,05,18,00,05,15.70
2008,05,18,00,06,15.60
2008,05,18,00,07,15.50
2008,05,18,00,08,15.40
2008,05,18,00,09,15.30
2008,05,18,00,10,15.30
2008,05,18,00,11,15.20
2008,05,18,00,12,15.20
2008,05,18,00,13,15.10
2008,05,18,00,14,15.00
2008,05,18,00,15,15.00
2008,05,18,00,16,15.00
2008,05,18,00,17,15.00
2008,05,18,00,18,15.00
2008,05,18,00,19,15.00
2008,05,18,00,20,15.00
2008,05,18,00,21,15.00
2008,05,18,00,22,15.00
2008,05,18,00,23,15.00
2008,05,18,00,24,15.00
2008,05,18,00,25,15.10
2008,05,18,00,26,15.10
2008,05,18,00,27,15.10
2008,05,18,00,28,15.10
2008,05,18,00,29,15.10
2008,05,18,00,30,15.10
2008,05,18,00,31,15.00
2008,05,18,00,32,15.00
2008,05,18,00,33,15.00
2008,05,18,00,34,15.00
2008,05,18,00,35,15.00
2008,05,18,00,36,15.00
2008,05,18,00,37,15.00
2008,05,18,00,38,15.00
2008,05,18,00,39,14.90
2008,05,18,00,40,14.90
2008,05,18,00,41,14.80
2008,05,18,00,42,14.80
2008,05,18,00,43,14.70
2008,05,18,00,44,14.70
2008,05,18,00,45,14.70
2008,05,18,00,46,14.60
2008,05,18,00,47,14.60
2008,05,18,00,48,14.60
2008,05,18,00,49,14.60
2008,05,18,00,50,14.60
2008,05,18,00,51,14.50
2008,05,18,00,52,14.50
2008,05,18,00,53,14.40
2008,05,18,00,54,14.40
2008,05,18,00,55,14.40
2008,05,18,00,56,14.30
2008,05,18,00,57,14.30
2008,05,18,00,58,14.30
2008,05,18,00,59,14.20
2008,05,18,01,00,14.20
2008,05,18,01,01,14.10
2008,05,18,01,02,14.10
2008,05,18,01,03,14.10
2008,05,18,01,04,14.00
2008,05,18,01,05,14.00
2008,05,18,01,06,13.90
2008,05,18,01,07,13.90
2008,05,18,01,08,14.00
2008,05,18,01,09,14.10
2008,05,18,01,10,14.20
2008,05,18,01,11,14.30
2008,05,18,01,12,14.40
2008,05,18,01,13,14.60
2008,05,18,01,14,14.70
2008,05,18,01,15,14.90
2008,05,18,01,16,15.00
2008,05,18,01,17,15.20
2008,05,18,01,18,15.30
2008,05,18,01,19,15.50
2008,05,18,01,20,15.70
2008,05,18,01,21,15.80
2008,05,18,01,22,15.90
2008,05,18,01,23,15.90
2008,05,18,01,24,15.90
2008,05,18,01,25,16.00
2008,05,18,01,26,15.90
2008,05,18,01,27,15.90
2008,05,18,01,28,15.80
2008,05,18,01,29,15.70
2008,05,18,01,30,15.60
2008,05,18,01,31,15.60
2008,05,18,01,32,15.50
2008,05,18,01,33,15.50
2008,05,18,01,34,15.40
2008,05,18,01,35,15.40
2008,05,18,01,36,15.30
2008,05,18,01,37,15.30
2008,05,18,01,38,15.30
2008,05,18,01,39,15.30
2008,05,18,01,40,15.40
2008,05,18,01,41,15.40
2008,05,18,01,42,15.40
2008,05,18,01,43,15.40
2008,05,18,01,44,15.40
2008,05,18,01,45,15.40
2008,05,18,01,46,15.40
2008,05,18,01,47,15.40
2008,05,18,01,48,15.40
2008,05,18,01,49,15.40
2008,05,18,01,50,15.40
2008,05,18,01,51,15.40
2008,05,18,01,52,15.40
2008,05,18,01,53,15.40
2008,05,18,01,54,15.40
2008,05,18,01,55,15.40
2008,05,18,01,56,15.40
2008,05,18,01,57,15.40
2008,05,18,01,58,15.50
2008,05,18,01,59,15.50
2008,05,18,02,00,15.60
2008,05,18,02,01,15.60
2008,05,18,02,02,15.60
2008,05,18,02,03,15.60
2008,05,18,02,04,15.60
2008,05,18,02,05,15.60
2008,05,18,02,06,15.60
2008,05,18,02,07,15.60
2008,05,18,02,08,15.50
2008,05,18,02,09,15.50
2008,05,18,02,10,15.60
2008,05,18,02,11,15.60
2008,05,18,02,12,15.60
2008,05,18,02,13,15.60
2008,05,18,02,14,15.70
2008,05,18,02,15,15.80
2008,05,18,02,16,15.90
2008,05,18,02,17,16.00
2008,05,18,02,18,16.00
2008,05,18,02,19,16.10
2008,05,18,02,20,16.10
2008,05,18,02,21,16.10
2008,05,18,02,22,16.00
2008,05,18,02,23,16.00
2008,05,18,02,24,16.00
2008,05,18,02,25,16.00
2008,05,18,02,26,16.00
2008,05,18,02,27,16.00
2008,05,18,02,28,16.00
2008,05,18,02,29,16.10
2008,05,18,02,30,16.00
2008,05,18,02,31,15.90
2008,05,18,02,32,15.80
2008,05,18,02,33,15.70
2008,05,18,02,34,15.60
2008,05,18,02,35,15.60
2008,05,18,02,36,15.50
2008,05,18,02,37,15.40
2008,05,18,02,38,15.30
2008,05,18,02,39,15.30
2008,05,18,02,40,15.20
2008,05,18,02,41,15.20
2008,05,18,02,42,15.10
2008,05,18,02,43,15.10
2008,05,18,02,44,15.10
2008,05,18,02,45,15.10
2008,05,18,02,46,15.00
2008,05,18,02,47,15.00
2008,05,18,02,48,15.00
2008,05,18,02,49,15.00
2008,05,18,02,50,15.00
2008,05,18,02,51,14.90
2008,05,18,02,52,14.90
2008,05,18,02,53,14.80
2008,05,18,02,54,14.80
2008,05,18,02,55,14.80
2008,05,18,02,56,14.70
2008,05,18,02,57,14.70
2008,05,18,02,58,14.60
2008,05,18,02,59,14.60
2008,05,18,03,00,14.60
2008,05,18,03,01,14.50
2008,05,18,03,02,14.50
2008,05,18,03,03,14.40
2008,05,18,03,04,14.40
2008,05,18,03,05,14.40
2008,05,18,03,06,14.30
2008,05,18,03,07,14.30
2008,05,18,03,08,14.30
2008,05,18,03,09,14.20
2008,05,18,03,10,14.20
2008,05,18,03,11,14.10
2008,05,18,03,12,14.10
2008,05,18,03,13,14.00
2008,05,18,03,14,14.00
2008,05,18,03,15,13.90
2008,05,18,03,16,14.00
2008,05,18,03,17,14.00
2008,05,18,03,18,13.90
2008,05,18,03,19,13.90
2008,05,18,03,20,14.00
2008,05,18,03,21,14.00
2008,05,18,03,22,14.00
2008,05,18,03,23,14.10
2008,05,18,03,24,14.20
2008,05,18,03,25,14.30
2008,05,18,03,26,14.40
2008,05,18,03,27,14.50
2008,05,18,03,28,14.60
2008,05,18,03,29,14.80
2008,05,18,03,30,15.00
2008,05,18,03,31,15.10
2008,05,18,03,32,15.50
2008,05,18,03,33,15.70
2008,05,18,03,34,15.90
2008,05,18,03,35,16.10
2008,05,18,03,36,16.30
2008,05,18,03,37,16.50
2008,05,18,03,38,16.60
2008,05,18,03,39,16.70
2008,05,18,03,40,16.80
2008,05,18,03,41,16.80
2008,05,18,03,42,16.90
2008,05,18,03,43,16.90
2008,05,18,03,44,16.90
2008,05,18,03,45,17.00
2008,05,18,03,46,17.00
2008,05,18,03,47,17.00
2008,05,18,03,48,17.00
2008,05,18,03,49,17.00
2008,05,18,03,50,17.00
2008,05,18,03,51,17.00
2008,05,18,03,52,17.00
2008,05,18,03,53,17.00
2008,05,18,03,54,17.00
2008,05,18,03,55,17.00
2008,05,18,03,56,17.00
2008,05,18,03,57,17.00
2008,05,18,03,58,17.00
2008,05,18,03,59,17.00
2008,05,18,04,00,17.00
2008,05,18,04,01,17.00
2008,05,18,04,02,16.90
2008,05,18,04,03,16.90
2008,05,18,04,04,16.90
2008,05,18,04,05,16.90
2008,05,18,04,06,16.90
2008,05,18,04,07,16.90
2008,05,18,04,08,16.80
2008,05,18,04,09,16.80
2008,05,18,04,10,16.80
2008,05,18,04,11,16.80
2008,05,18,04,12,16.80
2008,05,18,04,13,16.80
2008,05,18,04,14,16.90
2008,05,18,04,15,16.80
2008,05,18,04,16,16.80
2008,05,18,04,17,16.80
2008,05,18,04,18,16.80
2008,05,18,04,19,16.80
2008,05,18,04,20,16.80
2008,05,18,04,21,16.80
2008,05,18,04,22,16.80
2008,05,18,04,23,16.80
2008,05,18,04,24,16.80
2008,05,18,04,25,16.80
2008,05,18,04,26,16.80
2008,05,18,04,27,16.80
2008,05,18,04,28,16.80
2008,05,18,04,29,16.80
2008,05,18,04,30,16.80
2008,05,18,04,31,16.80
2008,05,18,04,32,16.80
2008,05,18,04,33,16.80
2008,05,18,04,34,16.80
2008,05,18,04,35,16.80
2008,05,18,04,36,16.80
2008,05,18,04,37,16.80
2008,05,18,04,38,16.70
2008,05,18,04,39,16.70
2008,05,18,04,40,16.70
2008,05,18,04,41,16.70
2008,05,18,04,42,16.70
2008,05,18,04,43,16.60
2008,05,18,04,44,16.50
2008,05,18,04,45,16.50
2008,05,18,04,46,16.40
2008,05,18,04,47,16.30
2008,05,18,04,48,16.30
2008,05,18,04,49,16.20
2008,05,18,04,50,16.20
2008,05,18,04,51,16.20
2008,05,18,04,52,16.30
2008,05,18,04,53,16.30
2008,05,18,04,54,16.30
2008,05,18,04,55,16.30
2008,05,18,04,56,16.40
2008,05,18,04,57,16.40
2008,05,18,04,58,16.40
2008,05,18,04,59,16.40
2008,05,18,05,00,16.40
2008,05,18,05,01,16.50
2008,05,18,05,02,16.50
2008,05,18,05,03,16.50
2008,05,18,05,04,16.50
2008,05,18,05,05,16.50
2008,05,18,05,06,16.40
2008,05,18,05,07,16.30
2008,05,18,05,08,16.10
2008,05,18,05,09,16.00
2008,05,18,05,10,15.80
2008,05,18,05,11,15.70
2008,05,18,05,12,15.50
2008,05,18,05,13,15.30
2008,05,18,05,14,15.20
2008,05,18,05,15,15.00
2008,05,18,05,16,15.00
2008,05,18,05,17,14.90
2008,05,18,05,18,14.80
2008,05,18,05,19,14.70
2008,05,18,05,20,14.50
2008,05,18,05,21,14.40
2008,05,18,05,22,14.40
2008,05,18,05,23,14.30
2008,05,18,05,24,14.30
2008,05,18,05,25,14.20
2008,05,18,05,26,14.10
2008,05,18,05,27,14.00
2008,05,18,05,28,13.90
2008,05,18,05,29,13.80
2008,05,18,05,30,13.60
2008,05,18,05,31,13.50
2008,05,18,05,32,13.40
2008,05,18,05,33,13.30
2008,05,18,05,34,13.20
2008,05,18,05,35,13.10
2008,05,18,05,36,13.00
2008,05,18,05,37,12.90
2008,05,18,05,38,12.70
2008,05,18,05,39,12.70
2008,05,18,05,40,12.50
2008,05,18,05,41,12.40
2008,05,18,05,42,12.30
2008,05,18,05,43,12.20
2008,05,18,05,44,12.20
2008,05,18,05,45,12.10
2008,05,18,05,46,12.00
2008,05,18,05,47,12.00
2008,05,18,05,48,11.90
2008,05,18,05,49,11.90
2008,05,18,05,50,11.80
2008,05,18,05,51,11.80
2008,05,18,05,52,11.70
2008,05,18,05,53,11.70
2008,05,18,05,54,11.70
2008,05,18,05,55,11.70
2008,05,18,05,56,11.70
2008,05,18,05,57,11.60
2008,05,18,05,58,11.70
2008,05,18,05,59,11.70
2008,05,18,06,00,11.70
2008,05,18,06,01,11.70
2008,05,18,06,02,11.70
2008,05,18,06,03,11.70
2008,05,18,06,04,11.70
2008,05,18,06,05,11.70
2008,05,18,06,06,11.70
2008,05,18,06,07,11.70
2008,05,18,06,08,11.70
2008,05,18,06,09,11.70
2008,05,18,06,10,11.70
2008,05,18,06,11,11.80
2008,05,18,06,12,11.80
2008,05,18,06,13,11.80
2008,05,18,06,14,11.80
2008,05,18,06,15,11.80
2008,05,18,06,16,11.80
2008,05,18,06,17,11.90
2008,05,18,06,18,11.90
2008,05,18,06,19,11.90
2008,05,18,06,20,11.90
2008,05,18,06,21,12.00
2008,05,18,06,22,12.00
2008,05,18,06,23,12.00
2008,05,18,06,24,12.10
2008,05,18,06,25,12.10
2008,05,18,06,26,12.10
2008,05,18,06,27,12.00
2008,05,18,06,28,12.00
2008,05,18,06,29,12.00
2008,05,18,06,30,12.00
2008,05,18,06,31,12.10
2008,05,18,06,32,12.10
2008,05,18,06,33,12.10
2008,05,18,06,34,12.20
2008,05,18,06,35,12.20
2008,05,18,06,36,12.10
2008,05,18,06,37,12.10
2008,05,18,06,38,12.10
2008,05,18,06,39,12.10
2008,05,18,06,40,12.10
2008,05,18,06,41,12.10
2008,05,18,06,42,12.10
2008,05,18,06,43,12.10
2008,05,18,06,44,12.20
2008,05,18,06,45,12.20
2008,05,18,06,46,12.20
2008,05,18,06,47,12.20
2008,05,18,06,48,12.20
2008,05,18,06,49,12.20
2008,05,18,06,50,12.20
2008,05,18,06,51,12.30
2008,05,18,06,52,12.20
2008,05,18,06,53,12.20
2008,05,18,06,54,12.10
2008,05,18,06,55,12.00
2008,05,18,06,56,12.00
2008,05,18,06,57,11.90
2008,05,18,06,58,11.90
2008,05,18,06,59,12.00
2008,05,18,07,00,12.00
2008,05,18,07,01,12.10
2008,05,18,07,02,12.10
2008,05,18,07,03,12.20
2008,05,18,07,04,12.30
2008,05,18,07,05,12.40
2008,05,18,07,06,12.50
2008,05,18,07,07,12.60
2008,05,18,07,08,12.70
2008,05,18,07,09,12.80
2008,05,18,07,10,12.80
2008,05,18,07,11,12.80
2008,05,18,07,12,12.80
2008,05,18,07,13,12.80
2008,05,18,07,14,12.90
2008,05,18,07,15,12.80
2008,05,18,07,16,12.80
2008,05,18,07,17,12.80
2008,05,18,07,18,12.80
2008,05,18,07,19,12.80
2008,05,18,07,20,12.80
2008,05,18,07,21,12.80
2008,05,18,07,22,12.90
2008,05,18,07,23,12.90
2008,05,18,07,24,13.00
2008,05,18,07,25,13.10
2008,05,18,07,26,13.10
2008,05,18,07,27,13.10
2008,05,18,07,28,13.10
2008,05,18,07,29,13.10
2008,05,18,07,30,13.10
2008,05,18,07,31,13.10
2008,05,18,07,32,13.10
2008,05,18,07,33,13.10
2008,05,18,07,34,13.20
2008,05,18,07,35,13.20
2008,05,18,07,36,13.30
2008,05,18,07,37,13.30
2008,05,18,07,38,13.40
2008,05,18,07,39,13.30
2008,05,18,07,40,13.30
2008,05,18,07,41,13.30
2008,05,18,07,42,13.40
2008,05,18,07,43,13.40
2008,05,18,07,44,13.50
2008,05,18,07,45,13.40
2008,05,18,07,46,13.30
2008,05,18,07,47,13.30
2008,05,18,07,48,13.30
2008,05,18,07,49,13.30
2008,05,18,07,50,13.30
2008,05,18,07,51,13.30
2008,05,18,07,52,13.30
2008,05,18,07,53,13.30
2008,05,18,07,54,13.20
2008,05,18,07,55,13.20
2008,05,18,07,56,13.30
2008,05,18,07,57,13.30
2008,05,18,07,58,13.30
2008,05,18,07,59,13.20
2008,05,18,08,00,13.20
2008,05,18,08,01,13.20
2008,05,18,08,02,13.30
2008,05,18,08,03,13.40
2008,05,18,08,04,13.50
2008,05,18,08,05,13.50
2008,05,18,08,06,13.60
2008,05,18,08,07,13.60
2008,05,18,08,08,13.70
2008,05,18,08,09,13.70
2008,05,18,08,10,13.60
2008,05,18,08,11,13.50
2008,05,18,08,12,13.50
2008,05,18,08,13,13.60
2008,05,18,08,14,13.70
2008,05,18,08,15,13.70
2008,05,18,08,16,13.70
2008,05,18,08,17,13.80
2008,05,18,08,18,13.80
2008,05,18,08,19,13.70
2008,05,18,08,20,13.60
2008,05,18,08,21,13.60
2008,05,18,08,22,13.50
2008,05,18,08,23,13.40
2008,05,18,08,24,13.40
2008,05,18,08,25,13.30
2008,05,18,08,26,13.30
2008,05,18,08,27,13.30
2008,05,18,08,28,13.30
2008,05,18,08,29,13.30
2008,05,18,08,30,13.30
2008,05,18,08,31,13.20
2008,05,18,08,32,13.10
2008,05,18,08,33,12.90
2008,05,18,08,34,12.80
2008,05,18,08,35,12.80
2008,05,18,08,36,12.60
2008,05,18,08,37,12.60
2008,05,18,08,38,12.50
2008,05,18,08,39,12.40
2008,05,18,08,40,12.40
2008,05,18,08,41,12.30
2008,05,18,08,42,12.30
2008,05,18,08,43,12.30
2008,05,18,08,44,12.30
2008,05,18,08,45,12.30
2008,05,18,08,46,12.30
2008,05,18,08,47,12.40
2008,05,18,08,48,12.50
2008,05,18,08,49,12.60
2008,05,18,08,50,12.60
2008,05,18,08,51,12.70
2008,05,18,08,52,12.80
2008,05,18,08,53,12.80
2008,05,18,08,54,12.80
2008,05,18,08,55,12.80
2008,05,18,08,56,12.80
2008,05,18,08,57,12.70
2008,05,18,08,58,12.70
2008,05,18,08,59,12.70
2008,05,18,09,00,12.70
2008,05,18,09,01,12.80
2008,05,18,09,02,12.90
2008,05,18,09,03,13.00
2008,05,18,09,04,13.10
2008,05,18,09,05,13.20
2008,05,18,09,06,13.30
2008,05,18,09,07,13.30
2008,05,18,09,08,13.50
2008,05,18,09,09,13.60
2008,05,18,09,10,13.70
2008,05,18,09,11,13.70
2008,05,18,09,12,13.80
2008,05,18,09,13,13.80
2008,05,18,09,14,13.80
2008,05,18,09,15,13.80
2008,05,18,09,16,13.90
2008,05,18,09,17,13.90
2008,05,18,09,18,14.00
2008,05,18,09,19,14.00
2008,05,18,09,20,14.10
2008,05,18,09,21,14.20
2008,05,18,09,22,14.20
2008,05,18,09,23,14.00
2008,05,18,09,24,13.90
2008,05,18,09,25,13.90
2008,05,18,09,26,13.90
2008,05,18,09,27,13.80
2008,05,18,09,28,13.80
2008,05,18,09,29,13.70
2008,05,18,09,30,13.70
2008,05,18,09,31,13.70
2008,05,18,09,32,13.70
2008,05,18,09,33,13.70
2008,05,18,09,34,13.80
2008,05,18,09,35,13.80
2008,05,18,09,36,13.90
2008,05,18,09,37,13.90
2008,05,18,09,38,14.00
2008,05,18,09,39,14.10
2008,05,18,09,40,14.20
2008,05,18,09,41,14.30
2008,05,18,09,42,14.50
2008,05,18,09,43,14.60
2008,05,18,09,44,14.70
2008,05,18,09,45,14.70
2008,05,18,09,46,14.70
2008,05,18,09,47,14.80
2008,05,18,09,48,14.90
2008,05,18,09,49,15.00
2008,05,18,09,50,15.00
2008,05,18,09,51,15.00
2008,05,18,09,52,15.00
2008,05,18,09,53,15.00
2008,05,18,09,54,15.00
2008,05,18,09,55,14.80
2008,05,18,09,56,14.80
2008,05,18,09,57,14.60
2008,05,18,09,58,14.50
2008,05,18,09,59,14.40
2008,05,18,10,00,14.40
2008,05,18,10,01,14.50
2008,05,18,10,02,14.60
2008,05,18,10,03,14.60
2008,05,18,10,04,14.50
2008,05,18,10,05,14.30
2008,05,18,10,06,14.20
2008,05,18,10,07,14.10
2008,05,18,10,08,13.90
2008,05,18,10,09,13.90
2008,05,18,10,10,13.80
2008,05,18,10,11,13.80
2008,05,18,10,12,13.80
2008,05,18,10,13,13.80
2008,05,18,10,14,13.80
2008,05,18,10,15,13.80
2008,05,18,10,16,13.90
2008,05,18,10,17,14.00
2008,05,18,10,18,14.20
2008,05,18,10,19,14.20
2008,05,18,10,20,14.30
2008,05,18,10,21,14.40
2008,05,18,10,22,14.50
2008,05,18,10,23,14.60
2008,05,18,10,24,14.60
2008,05,18,10,25,14.70
2008,05,18,10,26,14.80
2008,05,18,10,27,14.80
2008,05,18,10,28,14.80
2008,05,18,10,29,14.90
2008,05,18,10,30,14.80
2008,05,18,10,31,14.80
2008,05,18,10,32,14.80
2008,05,18,10,33,14.80
2008,05,18,10,34,15.00
2008,05,18,10,35,15.00
2008,05,18,10,36,15.00
2008,05,18,10,37,15.00
2008,05,18,10,38,14.90
2008,05,18,10,39,14.70
2008,05,18,10,40,14.60
2008,05,18,10,41,14.40
2008,05,18,10,42,14.30
2008,05,18,10,43,14.20
2008,05,18,10,44,14.20
2008,05,18,10,45,14.10
2008,05,18,10,46,14.00
2008,05,18,10,47,13.90
2008,05,18,10,48,13.90
2008,05,18,10,49,14.00
2008,05,18,10,50,14.00
2008,05,18,10,51,14.00
2008,05,18,10,52,13.90
2008,05,18,10,53,13.80
2008,05,18,10,54,13.80
2008,05,18,10,55,13.90
2008,05,18,10,56,14.00
2008,05,18,10,57,14.10
2008,05,18,10,58,14.20
2008,05,18,10,59,14.30
2008,05,18,11,00,14.30
2008,05,18,11,01,14.40
2008,05,18,11,02,14.50
2008,05,18,11,03,14.50
2008,05,18,11,04,14.50
2008,05,18,11,05,14.60
2008,05,18,11,06,14.60
2008,05,18,11,07,14.50
2008,05,18,11,08,14.60
2008,05,18,11,09,14.80
2008,05,18,11,10,14.80
2008,05,18,11,11,14.90
2008,05,18,11,12,15.00
2008,05,18,11,13,15.00
2008,05,18,11,14,15.00
2008,05,18,11,15,15.00
2008,05,18,11,16,14.90
2008,05,18,11,17,14.90
2008,05,18,11,18,14.80
2008,05,18,11,19,14.70
2008,05,18,11,20,14.60
2008,05,18,11,21,14.60
2008,05,18,11,22,14.50
2008,05,18,11,23,14.50
2008,05,18,11,24,14.50
2008,05,18,11,25,14.40
2008,05,18,11,26,14.40
2008,05,18,11,27,14.50
2008,05,18,11,28,14.60
2008,05,18,11,29,14.50
2008,05,18,11,30,14.50
2008,05,18,11,31,14.50
2008,05,18,11,32,14.70
2008,05,18,11,33,14.80
2008,05,18,11,34,15.00
2008,05,18,11,35,14.90
2008,05,18,11,36,15.00
2008,05,18,11,37,14.90
2008,05,18,11,38,14.80
2008,05,18,11,39,14.70
2008,05,18,11,40,14.70
2008,05,18,11,41,14.70
2008,05,18,11,42,14.70
2008,05,18,11,43,14.60
2008,05,18,11,44,14.60
2008,05,18,11,45,14.60
2008,05,18,11,46,14.60
2008,05,18,11,47,14.70
2008,05,18,11,48,14.80
2008,05,18,11,49,14.90
2008,05,18,11,50,14.90
2008,05,18,11,51,14.90
2008,05,18,11,52,15.00
2008,05,18,11,53,14.90
2008,05,18,11,54,14.90
2008,05,18,11,55,14.90
2008,05,18,11,56,14.90
2008,05,18,11,57,15.00
2008,05,18,11,58,15.00
2008,05,18,11,59,14.80
2008,05,18,12,00,14.60
2008,05,18,12,01,14.50
2008,05,18,12,02,14.50
2008,05,18,12,03,14.40
2008,05,18,12,04,14.50
2008,05,18,12,05,14.50
2008,05,18,12,06,14.60
2008,05,18,12,07,14.70
2008,05,18,12,08,14.80
2008,05,18,12,09,14.80
2008,05,18,12,10,14.80
2008,05,18,12,11,14.90
2008,05,18,12,12,15.00
2008,05,18,12,13,15.00
2008,05,18,12,14,15.00
2008,05,18,12,15,15.00
2008,05,18,12,16,15.00
2008,05,18,12,17,15.00
2008,05,18,12,18,15.00
2008,05,18,12,19,15.00
2008,05,18,12,20,15.00
2008,05,18,12,21,15.00
2008,05,18,12,22,14.90
2008,05,18,12,23,14.70
2008,05,18,12,24,14.80
2008,05,18,12,25,15.00
2008,05,18,12,26,15.00
2008,05,18,12,27,15.00
2008,05,18,12,28,15.00
2008,05,18,12,29,15.10
2008,05,18,12,30,15.20
2008,05,18,12,31,15.20
2008,05,18,12,32,15.30
2008,05,18,12,33,15.30
2008,05,18,12,34,15.40
2008,05,18,12,35,15.50
2008,05,18,12,36,15.60
2008,05,18,12,37,15.70
2008,05,18,12,38,15.90
2008,05,18,12,39,16.00
2008,05,18,12,40,16.10
2008,05,18,12,41,16.10
2008,05,18,12,42,16.20
2008,05,18,12,43,16.30
2008,05,18,12,44,16.30
2008,05,18,12,45,16.50
2008,05,18,12,46,16.50
2008,05,18,12,47,16.60
2008,05,18,12,48,16.70
2008,05,18,12,49,16.70
2008,05,18,12,50,16.60
2008,05,18,12,51,16.50
2008,05,18,12,52,16.30
2008,05,18,12,53,16.30
2008,05,18,12,54,16.30
2008,05,18,12,55,16.30
2008,05,18,12,56,16.20
2008,05,18,12,57,16.20
2008,05,18,12,58,16.20
2008,05,18,12,59,16.20
2008,05,18,13,00,16.10
2008,05,18,13,01,16.20
2008,05,18,13,02,16.20
2008,05,18,13,03,16.30
2008,05,18,13,04,16.30
2008,05,18,13,05,16.40
2008,05,18,13,06,16.60
2008,05,18,13,07,16.60
2008,05,18,13,08,16.60
2008,05,18,13,09,16.70
2008,05,18,13,10,16.70
2008,05,18,13,11,16.50
2008,05,18,13,12,16.40
2008,05,18,13,13,16.30
2008,05,18,13,14,16.30
2008,05,18,13,15,16.20
2008,05,18,13,16,16.20
2008,05,18,13,17,16.20
2008,05,18,13,18,16.40
2008,05,18,13,19,16.50
2008,05,18,13,20,16.60
2008,05,18,13,21,16.70
2008,05,18,13,22,16.70
2008,05,18,13,23,16.80
2008,05,18,13,24,16.80
2008,05,18,13,25,16.80
2008,05,18,13,26,16.70
2008,05,18,13,27,16.70
2008,05,18,13,28,16.70
2008,05,18,13,29,16.70
2008,05,18,13,30,16.70
2008,05,18,13,31,16.70
2008,05,18,13,32,16.60
2008,05,18,13,33,16.60
2008,05,18,13,34,16.50
2008,05,18,13,35,16.50
2008,05,18,13,36,16.40
2008,05,18,13,37,16.30
2008,05,18,13,38,16.20
2008,05,18,13,39,16.10
2008,05,18,13,40,16.00
2008,05,18,13,41,16.00
2008,05,18,13,42,16.00
2008,05,18,13,43,16.10
2008,05,18,13,44,16.20
2008,05,18,13,45,16.30
2008,05,18,13,46,16.30
2008,05,18,13,47,16.30
2008,05,18,13,48,16.30
2008,05,18,13,49,16.20
2008,05,18,13,50,16.20
2008,05,18,13,51,16.20
2008,05,18,13,52,16.10
2008,05,18,13,53,16.10
2008,05,18,13,54,16.00
2008,05,18,13,55,16.10
2008,05,18,13,56,16.00
2008,05,18,13,57,15.90
2008,05,18,13,58,15.90
2008,05,18,13,59,15.80
2008,05,18,14,00,15.80
2008,05,18,14,01,15.90
2008,05,18,14,02,16.00
2008,05,18,14,03,16.10
2008,05,18,14,04,16.10
2008,05,18,14,05,16.00
2008,05,18,14,06,16.00
2008,05,18,14,07,16.10
2008,05,18,14,08,16.10
2008,05,18,14,09,16.10
2008,05,18,14,10,16.00
2008,05,18,14,11,16.00
2008,05,18,14,12,16.00
2008,05,18,14,13,16.00
2008,05,18,14,14,16.10
2008,05,18,14,15,16.10
2008,05,18,14,16,16.10
2008,05,18,14,17,16.20
2008,05,18,14,18,16.40
2008,05,18,14,19,16.50
2008,05,18,14,20,16.60
2008,05,18,14,21,16.60
2008,05,18,14,22,16.70
2008,05,18,14,23,16.80
2008,05,18,14,24,16.90
2008,05,18,14,25,17.00
2008,05,18,14,26,17.20
2008,05,18,14,27,17.30
2008,05,18,14,28,17.30
2008,05,18,14,29,17.40
2008,05,18,14,30,17.40
2008,05,18,14,31,17.50
2008,05,18,14,32,17.60
2008,05,18,14,33,17.60
2008,05,18,14,34,17.50
2008,05,18,14,35,17.20
2008,05,18,14,36,16.90
2008,05,18,14,37,16.70
2008,05,18,14,38,16.50
2008,05,18,14,39,16.50
2008,05,18,14,40,16.40
2008,05,18,14,41,16.30
2008,05,18,14,42,16.20
2008,05,18,14,43,16.20
2008,05,18,14,44,16.20
2008,05,18,14,45,16.10
2008,05,18,14,46,16.10
2008,05,18,14,47,16.10
2008,05,18,14,48,16.20
2008,05,18,14,49,16.30
2008,05,18,14,50,16.30
2008,05,18,14,51,16.30
2008,05,18,14,52,16.40
2008,05,18,14,53,16.30
2008,05,18,14,54,16.30
2008,05,18,14,55,16.20
2008,05,18,14,56,16.20
2008,05,18,14,57,16.10
2008,05,18,14,58,16.00
2008,05,18,14,59,16.00
2008,05,18,15,00,16.00
2008,05,18,15,01,16.00
2008,05,18,15,02,16.00
2008,05,18,15,03,16.10
2008,05,18,15,04,16.10
2008,05,18,15,05,16.20
2008,05,18,15,06,16.10
2008,05,18,15,07,16.10
2008,05,18,15,08,16.10
2008,05,18,15,09,16.00
2008,05,18,15,10,16.00
2008,05,18,15,11,16.00
2008,05,18,15,12,16.00
2008,05,18,15,13,16.00
2008,05,18,15,14,16.10
2008,05,18,15,15,16.10
2008,05,18,15,16,16.20
2008,05,18,15,17,16.20
2008,05,18,15,18,16.30
2008,05,18,15,19,16.40
2008,05,18,15,20,16.50
2008,05,18,15,21,16.50
2008,05,18,15,22,16.60
2008,05,18,15,23,16.60
2008,05,18,15,24,16.60
2008,05,18,15,25,16.60
2008,05,18,15,26,16.50
2008,05,18,15,27,16.20
2008,05,18,15,28,15.80
2008,05,18,15,29,15.40
2008,05,18,15,30,15.20
2008,05,18,15,31,15.00
2008,05,18,15,32,15.00
2008,05,18,15,33,15.00
2008,05,18,15,34,15.00
2008,05,18,15,35,15.00
2008,05,18,15,36,15.00
2008,05,18,15,37,14.90
2008,05,18,15,38,14.80
2008,05,18,15,39,14.80
2008,05,18,15,40,14.70
2008,05,18,15,41,14.70
2008,05,18,15,42,14.70
2008,05,18,15,43,14.70
2008,05,18,15,44,14.60
2008,05,18,15,45,14.60
2008,05,18,15,46,14.60
2008,05,18,15,47,14.70
2008,05,18,15,48,14.80
2008,05,18,15,49,14.90
2008,05,18,15,50,15.00
2008,05,18,15,51,15.00
2008,05,18,15,52,15.00
2008,05,18,15,53,15.00
2008,05,18,15,54,15.00
2008,05,18,15,55,15.00
2008,05,18,15,56,14.90
2008,05,18,15,57,14.90
2008,05,18,15,58,14.80
2008,05,18,15,59,14.90
2008,05,18,16,00,14.90
2008,05,18,16,01,15.00
2008,05,18,16,02,15.00
2008,05,18,16,03,15.00
2008,05,18,16,04,15.00
2008,05,18,16,05,15.00
2008,05,18,16,06,15.00
2008,05,18,16,07,15.00
2008,05,18,16,08,15.00
2008,05,18,16,09,15.00
2008,05,18,16,10,15.00
2008,05,18,16,11,15.10
2008,05,18,16,12,15.10
2008,05,18,16,13,15.20
2008,05,18,16,14,15.10
2008,05,18,16,15,15.00
2008,05,18,16,16,15.00
2008,05,18,16,17,15.00
2008,05,18,16,18,15.00
2008,05,18,16,19,15.00
2008,05,18,16,20,15.20
2008,05,18,16,21,15.20
2008,05,18,16,22,15.20
2008,05,18,16,23,15.10
2008,05,18,16,24,15.00
2008,05,18,16,25,15.00
2008,05,18,16,26,15.10
2008,05,18,16,27,15.00
2008,05,18,16,28,15.00
2008,05,18,16,29,15.00
2008,05,18,16,30,15.00
2008,05,18,16,31,15.00
2008,05,18,16,32,15.00
2008,05,18,16,33,14.90
2008,05,18,16,34,14.80
2008,05,18,16,35,14.80
2008,05,18,16,36,14.80
2008,05,18,16,37,14.70
2008,05,18,16,38,14.50
2008,05,18,16,39,14.40
2008,05,18,16,40,14.30
2008,05,18,16,41,14.30
2008,05,18,16,42,14.40
2008,05,18,16,43,14.60
2008,05,18,16,44,14.70
2008,05,18,16,45,14.60
2008,05,18,16,46,14.50
2008,05,18,16,47,14.30
2008,05,18,16,48,14.20
2008,05,18,16,49,14.20
2008,05,18,16,50,14.20
2008,05,18,16,51,14.20
2008,05,18,16,52,14.00
2008,05,18,16,53,13.90
2008,05,18,16,54,13.90
2008,05,18,16,55,13.90
2008,05,18,16,56,14.00
2008,05,18,16,57,14.00
2008,05,18,16,58,14.00
2008,05,18,16,59,14.00
2008,05,18,17,00,13.80
2008,05,18,17,01,13.80
2008,05,18,17,02,13.70
2008,05,18,17,03,13.60
2008,05,18,17,04,13.60
2008,05,18,17,05,13.60
2008,05,18,17,06,13.70
2008,05,18,17,07,13.80
2008,05,18,17,08,13.90
2008,05,18,17,09,14.00
2008,05,18,17,10,14.00
2008,05,18,17,11,13.90
2008,05,18,17,12,13.90
2008,05,18,17,13,13.90
2008,05,18,17,14,13.90
2008,05,18,17,15,13.90
2008,05,18,17,16,13.80
2008,05,18,17,17,13.90
2008,05,18,17,18,14.00
2008,05,18,17,19,14.00